FW8896 Weather Reports


time (UTC)temp
F
wind
direction
speed
knots
gust
knots
rain 1hr
in
rain 24hr
in
rain mn
in
humidity
%
barometer
mb
20260906113602 71 310 0.0 1.7 0.00 0.00 0.00 99 1012.4
20260906113100 71 352 0.0 1.7 0.00 0.00 0.00 99 1012.3
20260906112601 71 305 0.0 0.9 0.00 0.00 0.00 99 1012.4
20260906112101 71 7 0.0 0.9 0.00 0.00 0.00 99 1012.3
20260906111601 71 5 0.0 0.9 0.00 0.00 0.00 99 1012.3
20260906111101 71 28 0.0 0.9 0.00 0.00 0.00 99 1012.4
20260906110633 71 340 0.9 1.7 0.00 0.00 0.00 99 1012.4
20260906110623 71 329 0.9 1.7 0.00 0.00 0.00 99 1012.3
20260906105601 71 337 0.0 1.7 0.00 0.00 0.00 99 1012.3
20260906105101 71 0 0.9 1.7 0.00 0.00 0.00 99 1012.4
20260906104602 71 326 0.9 1.7 0.00 0.00 0.00 99 1012.4
20260906104101 71 350 0.9 1.7 0.00 0.00 0.00 99 1012.4
20260906103632 71 345 0.9 1.7 0.00 0.00 0.00 99 1012.5
20260906103622 71 322 0.9 1.7 0.00 0.00 0.00 99 1012.5
20260906102601 71 319 0.9 1.7 0.00 0.00 0.00 99 1012.5
20260906102101 71 348 0.0 1.7 0.00 0.00 0.00 99 1012.6
20260906101600 71 8 0.9 1.7 0.00 0.00 0.00 99 1012.6
20260906101343 71 309 0.9 1.7 0.00 0.00 0.00 99 1012.6
20260906100601 71 321 0.9 1.7 0.00 0.00 0.00 99 1012.6
20260906095601 71 333 0.0 0.9 0.00 0.00 0.00 99 1012.6
20260906095102 71 318 0.0 0.9 0.00 0.00 0.00 99 1012.6
20260906094634 71 0 0.9 1.7 0.00 0.00 0.00 99 1012.6
20260906094624 71 314 0.0 0.9 0.00 0.00 0.00 99 1012.6
20260906093602 71 0 0.9 1.7 0.00 0.00 0.00 99 1012.6
20260906093100 71 329 0.9 1.7 0.00 0.00 0.00 99 1012.6
20260906092634 71 27 0.9 1.7 0.00 0.00 0.00 99 1012.5
20260906092623 71 320 0.9 1.7 0.00 0.00 0.00 99 1012.6
20260906091601 71 324 0.9 1.7 0.00 0.00 0.00 99 1012.5
20260906091101 71 327 0.9 1.7 0.00 0.00 0.00 99 1012.5
20260906090601 71 327 0.9 1.7 0.00 0.00 0.00 99 1012.5
20260906090100 71 347 0.9 1.7 0.00 0.00 0.00 99 1012.5
20260906085601 71 21 0.9 1.7 0.00 0.00 0.00 99 1012.4
20260906085101 71 7 0.9 1.7 0.00 0.00 0.00 99 1012.3
20260906084636 71 23 0.9 1.7 0.00 0.00 0.00 99 1012.2
20260906084624 71 5 0.9 1.7 0.00 0.00 0.00 99 1012.3
20260906083917 71 0 0.0 0.9 0.00 0.00 0.00 98 1012.2
20260906083912 71 10 0.9 1.7 0.00 0.00 0.00 98 1012.2
20260906082600 71 0 0.0 1.7 0.00 0.00 0.00 98 1012.2
20260906082100 71 0 0.0 1.7 0.00 0.00 0.00 98 1012.2
20260906081635 71 26 0.0 0.9 0.00 0.00 0.00 98 1012.2
20260906081623 71 0 0.0 0.9 0.00 0.00 0.00 99 1012.3
20260906080600 71 0 0.0 0.9 0.00 0.00 0.00 99 1012.2
20260906075600 71 305 0.9 1.7 0.00 0.00 0.00 98 1012.3
20260906075102 71 300 0.9 1.7 0.00 0.00 0.00 98 1012.3
20260906074604 71 0 0.9 1.7 0.00 0.00 0.00 99 1012.3
20260906074101 71 339 0.0 0.9 0.00 0.00 0.00 98 1012.4
20260906073601 71 353 0.0 0.9 0.00 0.00 0.00 98 1012.4
20260906073102 71 0 0.0 0.9 0.00 0.00 0.00 98 1012.4
20260906072602 71 344 0.0 0.9 0.00 0.00 0.00 98 1012.4
20260906072103 71 341 0.0 0.9 0.00 0.00 0.00 98 1012.4
20260906071602 72 0 0.0 0.9 0.00 0.00 0.00 98 1012.5
20260906071102 72 359 0.0 1.7 0.00 0.00 0.00 98 1012.5
20260906070602 72 33 0.0 1.7 0.00 0.00 0.00 98 1012.5
20260906065601 72 0 0.9 1.7 0.00 0.00 0.00 98 1012.5
20260906065102 72 329 0.9 1.7 0.00 0.00 0.00 98 1012.5
20260906064602 72 355 0.0 1.7 0.00 0.00 0.00 98 1012.6
20260906064104 72 48 0.0 0.9 0.00 0.00 0.00 98 1012.4
20260906063602 72 28 0.0 0.9 0.00 0.00 0.00 98 1012.4
20260906063102 72 0 0.0 0.9 0.00 0.00 0.00 98 1012.6
20260906062602 72 10 0.9 1.7 0.00 0.00 0.00 98 1012.6
20260906062102 72 0 1.7 1.7 0.00 0.00 0.00 98 1012.6
20260906061602 72 326 0.9 1.7 0.00 0.00 0.00 98 1012.7
20260906061102 72 331 0.0 1.7 0.00 0.00 0.00 98 1012.7
20260906060603 72 331 0.0 0.9 0.00 0.00 0.00 97 1012.8
20260906055602 72 0 0.0 0.9 0.00 0.00 0.00 97 1012.8
20260906055102 72 0 0.0 0.9 0.00 0.00 0.00 97 1012.8
20260906054602 72 0 0.0 0.9 0.00 0.00 0.00 97 1012.8
20260906054102 73 9 0.0 0.9 0.00 0.00 0.00 97 1012.7
20260906053602 72 336 0.0 1.7 0.00 0.00 0.00 96 1012.7
20260906053101 73 0 0.0 1.7 0.00 0.00 0.00 96 1012.8
20260906052602 73 326 0.0 0.9 0.00 0.00 0.00 96 1012.9
20260906052102 73 16 0.0 0.9 0.00 0.00 0.00 96 1013.0
20260906051602 73 0 0.9 2.6 0.00 0.00 0.00 96 1013.0
20260906051102 73 306 0.9 2.6 0.00 0.00 0.00 96 1013.0
20260906050844 73 314 0.9 1.7 0.00 0.00 0.00 96 1012.9
20260906045602 73 0 0.0 0.9 0.00 0.00 0.00 95 1012.9
20260906045101 73 0 0.0 0.9 0.00 0.00 0.00 95 1012.8
20260906044845 73 0 0.0 0.9 0.00 0.00 0.00 95 1012.9
20260906044103 73 0 0.0 1.7 0.00 0.00 0.00 95 1012.9
20260906043602 73 328 0.9 1.7 0.00 0.00 0.00 95 1012.8
20260906043101 73 319 0.9 1.7 0.00 0.00 0.00 95 1012.9
20260906042601 73 325 0.9 1.7 0.00 0.00 0.00 95 1012.9
20260906042101 73 322 0.9 1.7 0.00 0.00 0.00 95 1012.9
20260906041601 73 317 0.9 1.7 0.00 0.00 0.00 94 1012.8
20260906041101 73 315 0.9 1.7 0.00 0.00 0.00 94 1012.8
20260906040600 73 0 0.9 1.7 0.00 0.00 0.00 94 1012.8
20260906040100 74 0 0.9 1.7 0.00 0.00 0.00 94 1012.8
20260906035602 74 324 0.9 1.7 0.00 0.00 0.00 93 1012.8
20260906035102 74 315 0.0 1.7 0.00 0.00 0.00 93 1012.9
20260906034601 74 0 0.0 0.9 0.00 0.00 0.00 93 1013.0
20260906034100 74 0 0.0 1.7 0.00 0.00 0.00 94 1013.0
20260906033601 74 0 0.9 1.7 0.00 0.00 0.00 93 1013.0
20260906033343 74 0 0.0 1.7 0.00 0.00 0.00 93 1013.0
20260906032601 74 0 0.0 0.9 0.00 0.00 0.00 93 1013.0
20260906032134 75 3 0.9 1.7 0.00 0.00 0.00 92 1012.9
20260906032123 75 0 0.0 1.7 0.00 0.00 0.00 92 1012.9
20260906031101 75 17 0.9 1.7 0.00 0.00 0.00 91 1013.0
20260906030600 75 0 0.0 1.7 0.00 0.00 0.00 91 1013.2
20260906030101 75 0 0.9 1.7 0.00 0.00 0.00 90 1013.2
20260906025601 75 0 0.9 1.7 0.00 0.00 0.00 90 1013.3
20260906025101 75 358 0.9 1.7 0.00 0.00 0.00 90 1013.2
20260906024601 76 320 0.9 1.7 0.00 0.00 0.00 90 1013.2
20260906024101 76 88 0.9 1.7 0.00 0.00 0.00 89 1013.3
20260906023600 76 294 0.9 1.7 0.00 0.00 0.00 89 1013.2
20260906023135 77 95 0.9 1.7 0.00 0.00 0.00 88 1013.0
20260906023123 76 0 0.9 1.7 0.00 0.00 0.00 90 1013.2
20260906022101 77 0 0.9 1.7 0.00 0.00 0.00 85 1012.9
20260906021600 77 348 0.9 1.7 0.00 0.00 0.00 85 1013.1
20260906021101 77 0 0.9 1.7 0.00 0.00 0.00 87 1013.1
20260906020601 77 0 1.7 2.6 0.00 0.00 0.00 85 1013.1
20260906015602 78 344 0.9 1.7 0.00 0.00 0.00 85 1013.0
20260906015101 78 78 0.9 1.7 0.00 0.00 0.00 84 1013.0
20260906014845 78 0 0.9 2.6 0.00 0.00 0.00 81 1012.8
20260906014101 78 0 0.9 2.6 0.00 0.00 0.00 81 1012.7
20260906013602 78 338 0.0 1.7 0.00 0.00 0.00 83 1012.5
20260906013100 78 307 0.0 1.7 0.00 0.00 0.00 82 1012.4
20260906012601 78 0 0.9 1.7 0.00 0.00 0.00 82 1012.5
20260906012102 77 72 0.9 2.6 0.00 0.00 0.00 84 1012.5
20260906011601 77 7 0.9 2.6 0.00 0.00 0.00 84 1012.5
20260906011101 77 0 0.0 1.7 0.00 0.00 0.00 85 1012.6
20260906010601 77 0 0.0 1.7 0.00 0.00 0.00 85 1012.5
20260906010101 77 94 0.9 1.7 0.00 0.00 0.00 86 1012.3
20260906005847 77 97 0.9 2.6 0.00 0.00 0.00 87 1012.2
20260906005100 77 333 0.9 2.6 0.00 0.00 0.00 85 1011.7
20260906004602 78 0 0.0 1.7 0.00 0.00 0.00 85 1011.6
20260906004345 78 0 0.9 1.7 0.00 0.00 0.00 84 1011.6
20260906003601 78 74 0.0 1.7 0.00 0.00 0.00 84 1011.5
20260906003102 79 0 0.9 2.6 0.00 0.00 0.00 82 1011.5
20260906002601 79 0 1.7 2.6 0.00 0.00 0.00 79 1011.2
20260906002101 79 339 0.9 2.6 0.00 0.00 0.00 80 1011.3
20260906001601 80 346 0.9 1.7 0.00 0.00 0.00 79 1011.3
20260906001101 80 359 0.9 1.7 0.00 0.00 0.00 80 1011.3
20260906000601 80 10 0.0 1.7 0.00 0.00 0.00 79 1011.2
20260905235601 81 330 0.9 1.7 0.00 0.00 0.00 76 1010.9
20260905235101 81 337 0.9 1.7 0.00 0.00 0.00 75 1010.7
20260905234601 82 306 0.9 1.7 0.00 0.00 0.00 74 1010.7
20260905234101 82 349 0.0 1.7 0.00 0.00 0.00 73 1010.7
20260905233846 82 287 0.0 1.7 0.00 0.00 0.00 75 1010.6
20260905233102 83 49 0.9 1.7 0.00 0.00 0.00 72 1010.7
20260905232601 83 74 0.9 3.5 0.00 0.00 0.00 71 1010.8
20260905232344 84 336 1.7 3.5 0.00 0.00 0.00 70 1011.1
20260905231601 84 212 2.6 6.1 0.00 0.00 0.00 70 1011.1
20260905231100 85 184 2.6 6.1 0.00 0.00 0.00 69 1011.1
20260905230601 86 131 1.7 3.5 0.00 0.00 0.00 67 1011.2
20260905230134 88 89 1.7 3.5 0.00 0.00 0.00 77 1011.3
20260905230123 87 53 1.7 3.5 0.00 0.00 0.00 66 1011.3
20260905225102 89 58 1.7 3.5 0.00 0.00 0.00 70 1011.1
20260905224844 91 22 1.7 3.5 0.00 0.00 0.00 73 1010.9
20260905224103 92 10 0.9 1.7 0.00 0.00 0.00 69 1010.5
20260905223602 92 347 0.9 1.7 0.00 0.00 0.00 67 1010.4
20260905223100 93 343 1.7 1.7 0.00 0.00 0.00 67 1010.4
20260905222600 94 346 0.9 1.7 0.00 0.00 0.00 64 1010.4
20260905222101 95 352 0.9 1.7 0.00 0.00 0.00 60 1010.4
20260905221601 96 50 0.0 1.7 0.00 0.00 0.00 57 1010.4
20260905221100 97 0 0.9 1.7 0.00 0.00 0.00 56 1010.3
20260905220845 99 0 0.9 2.6 0.00 0.00 0.00 56 1010.4
20260905215600 100 193 1.7 2.6 0.00 0.00 0.00 51 1010.5
20260905215102 99 203 1.7 2.6 0.00 0.00 0.00 51 1010.4
20260905214602 99 0 0.9 2.6 0.00 0.00 0.00 50 1010.3
20260905214346 99 322 0.9 2.6 0.00 0.00 0.00 49 1010.3
20260905213844 98 227 1.7 2.6 0.00 0.00 0.00 51 1010.2
20260905213101 98 358 1.7 3.5 0.00 0.00 0.00 53 1010.2
20260905212600 99 352 0.9 3.5 0.00 0.00 0.00 52 1010.2
20260905212103 99 347 0.9 2.6 0.00 0.00 0.00 49 1010.2
20260905211602 99 317 0.9 2.6 0.00 0.00 0.00 47 1010.3
20260905211102 98 4 0.9 3.5 0.00 0.00 0.00 48 1010.3
20260905210602 98 316 1.7 3.5 0.00 0.00 0.00 52 1010.4
20260905205603 100 317 1.7 2.6 0.00 0.00 0.00 52 1010.6
20260905205101 100 341 1.7 2.6 0.00 0.00 0.00 52 1010.8
20260905204601 99 5 1.7 2.6 0.00 0.00 0.00 51 1010.8
20260905204101 98 318 1.7 3.5 0.00 0.00 0.00 48 1010.8
20260905203601 97 318 1.7 3.5 0.00 0.00 0.00 52 1010.9
20260905203101 98 317 1.7 3.5 0.00 0.00 0.00 54 1011.0
20260905202600 99 320 1.7 3.5 0.00 0.00 0.00 48 1011.0
20260905202100 99 319 1.7 3.5 0.00 0.00 0.00 50 1011.0
20260905201601 98 317 1.7 3.5 0.00 0.00 0.00 50 1011.0
20260905201101 97 266 1.7 3.5 0.00 0.00 0.00 53 1011.1
20260905200602 96 316 1.7 3.5 0.00 0.00 0.00 52 1011.1
20260905200100 96 318 1.7 3.5 0.00 0.00 0.00 52 1011.2
20260905195601 97 317 1.7 5.2 0.00 0.00 0.00 52 1011.3
20260905195343 97 320 2.6 5.2 0.00 0.00 0.00 51 1011.3
20260905194844 98 332 1.7 3.5 0.00 0.00 0.00 53 1011.4
20260905194123 98 348 1.7 3.5 0.00 0.00 0.00 51 1011.5
20260905193102 97 296 0.9 2.6 0.00 0.00 0.00 51 1011.5
20260905192843 98 317 1.7 2.6 0.00 0.00 0.00 54 1011.5
20260905192102 97 330 1.7 2.6 0.00 0.00 0.00 55 1011.6
20260905191601 97 319 1.7 3.5 0.00 0.00 0.00 52 1011.6
20260905191101 96 316 1.7 3.5 0.00 0.00 0.00 53 1011.7
20260905190600 96 46 1.7 3.5 0.00 0.00 0.00 52 1011.8
20260905185843 96 317 2.6 4.3 0.00 0.00 0.00 53 1012.0
20260905185101 95 320 1.7 4.3 0.00 0.00 0.00 54 1012.1
20260905184601 95 316 1.7 4.3 0.00 0.00 0.00 59 1012.1
20260905184102 95 355 1.7 4.3 0.00 0.00 0.00 55 1012.2
20260905183600 95 301 0.9 2.6 0.00 0.00 0.00 57 1012.3
20260905183100 95 130 0.9 3.5 0.00 0.00 0.00 57 1012.4
20260905182636 97 133 1.7 3.5 0.00 0.00 0.00 55 1012.5
20260905182625 96 323 1.7 3.5 0.00 0.00 0.00 56 1012.4
20260905181601 96 318 1.7 3.5 0.00 0.00 0.00 55 1012.5
20260905181101 96 317 1.7 3.5 0.00 0.00 0.00 54 1012.5
20260905180601 96 318 1.7 3.5 0.00 0.00 0.00 57 1012.6
20260905180100 96 317 1.7 3.5 0.00 0.00 0.00 53 1012.6
20260905175601 96 1 1.7 3.5 0.00 0.00 0.00 58 1012.7
20260905175101 96 155 0.9 3.5 0.00 0.00 0.00 58 1012.7
20260905174601 95 349 1.7 4.3 0.00 0.00 0.00 57 1012.8
20260905174102 94 331 1.7 4.3 0.00 0.00 0.00 60 1012.9
20260905173601 93 333 1.7 3.5 0.00 0.00 0.00 60 1012.9
20260905173101 94 359 1.7 3.5 0.00 0.00 0.00 59 1013.0
20260905172600 94 333 1.7 3.5 0.00 0.00 0.00 59 1013.1
20260905172101 94 349 1.7 3.5 0.00 0.00 0.00 57 1013.1
20260905171601 94 257 1.7 3.5 0.00 0.00 0.00 58 1013.2
20260905171347 94 39 1.7 4.3 0.00 0.00 0.00 61 1013.2
20260905170601 94 343 1.7 4.3 0.00 0.00 0.00 62 1013.2
20260905170100 94 336 1.7 4.3 0.00 0.00 0.00 60 1013.2
20260905165844 93 0 0.9 3.5 0.00 0.00 0.00 60 1013.2
20260905165101 93 216 0.9 2.6 0.00 0.00 0.00 61 1013.3
20260905164601 92 337 1.7 3.5 0.00 0.00 0.00 63 1013.4
20260905164100 92 23 1.7 4.3 0.00 0.00 0.00 62 1013.4
20260905163601 92 10 1.7 4.3 0.00 0.00 0.00 64 1013.5
20260905163102 91 5 1.7 3.5 0.00 0.00 0.00 62 1013.5
20260905162600 91 23 1.7 3.5 0.00 0.00 0.00 64 1013.6
20260905162122 91 296 1.7 3.5 0.00 0.00 0.00 69 1013.8
20260905161101 90 345 1.7 2.6 0.00 0.00 0.00 66 1013.9
20260905160601 90 356 1.7 2.6 0.00 0.00 0.00 69 1014.0
20260905160101 89 41 1.7 3.5 0.00 0.00 0.00 66 1014.0
20260905155600 88 36 1.7 3.5 0.00 0.00 0.00 71 1014.1
20260905155102 88 21 1.7 2.6 0.00 0.00 0.00 70 1014.1
20260905154615 87 5 1.7 2.6 0.00 0.00 0.00 73 1014.2
20260905154609 87 26 1.7 2.6 0.00 0.00 0.00 71 1014.2
20260905153601 87 26 1.7 3.5 0.00 0.00 0.00 71 1014.2
20260905153101 86 345 1.7 3.5 0.00 0.00 0.00 73 1014.2
20260905152601 86 44 1.7 3.5 0.00 0.00 0.00 73 1014.2
20260905152101 85 2 1.7 3.5 0.00 0.00 0.00 77 1014.2
20260905151602 85 359 1.7 3.5 0.00 0.00 0.00 75 1014.2
20260905151102 85 25 1.7 1.7 0.00 0.00 0.00 78 1014.2
20260905150601 85 17 1.7 1.7 0.00 0.00 0.00 75 1014.2
20260905145601 84 356 1.7 4.3 0.00 0.00 0.00 77 1014.2
20260905145101 84 349 1.7 2.6 0.00 0.00 0.00 78 1014.2
20260905144602 84 348 1.7 2.6 0.00 0.00 0.00 80 1014.3
20260905144102 83 353 1.7 3.5 0.00 0.00 0.00 78 1014.4
20260905143601 83 344 1.7 4.3 0.00 0.00 0.00 80 1014.4
20260905143345 82 359 1.7 4.3 0.00 0.00 0.00 77 1014.4
20260905142601 82 344 0.9 3.5 0.00 0.00 0.00 81 1014.4
20260905142103 81 342 0.9 3.5 0.00 0.00 0.00 83 1014.4
20260905141601 80 0 0.9 1.7 0.00 0.00 0.00 84 1014.4
20260905141100 80 14 0.9 1.7 0.00 0.00 0.00 84 1014.4
20260905140602 80 0 0.9 1.7 0.00 0.00 0.00 86 1014.5
20260905140100 79 0 0.9 4.3 0.00 0.00 0.00 86 1014.5
20260905135624 79 24 0.9 4.3 0.00 0.00 0.00 87 1014.5
20260905134602 78 32 1.7 3.5 0.00 0.00 0.00 91 1014.7
20260905134102 77 348 1.7 4.3 0.00 0.00 0.00 90 1014.7
20260905133603 76 332 1.7 4.3 0.00 0.00 0.00 93 1014.8
20260905133102 75 341 1.7 3.5 0.00 0.00 0.00 95 1015.2
20260905132602 75 1 2.6 3.5 0.00 0.00 0.00 97 1015.4
20260905132101 75 324 1.7 3.5 0.00 0.00 0.00 99 1015.0
20260905131603 74 66 1.7 2.6 0.00 0.00 0.00 100 1014.5
20260905131102 74 10 1.7 2.6 0.00 0.00 0.00 100 1014.5
20260905130601 74 10 1.7 1.7 0.00 0.00 0.00 100 1014.5
20260905130100 74 73 0.9 1.7 0.00 0.00 0.00 100 1014.5
20260905125601 73 352 0.9 1.7 0.00 0.00 0.00 100 1014.5
20260905125100 73 0 1.7 1.7 0.00 0.00 0.00 100 1014.6
20260905124601 73 10 1.7 1.7 0.00 0.00 0.00 100 1014.5
20260905124101 73 12 1.7 1.7 0.00 0.00 0.00 100 1014.6
20260905123601 72 355 1.7 1.7 0.00 0.00 0.00 100 1014.6
20260905123347 72 340 0.9 1.7 0.00 0.00 0.00 100 1014.7
20260905122601 72 346 0.9 1.7 0.00 0.00 0.00 100 1014.8
20260905122345 71 357 0.9 1.7 0.00 0.00 0.00 100 1014.8
20260905121847 71 352 0.9 1.7 0.00 0.00 0.00 100 1014.7
20260905121101 71 13 0.9 1.7 0.00 0.00 0.00 100 1014.6
20260905120603 71 344 0.9 1.7 0.00 0.00 0.00 100 1014.5
20260905115601 71 350 0.9 1.7 0.00 0.00 0.00 100 1014.6
20260905115102 71 337 0.9 1.7 0.00 0.00 0.00 100 1014.5
20260905114843 71 14 0.9 1.7 0.00 0.00 0.00 100 1014.6
20260905114102 71 357 0.9 1.7 0.00 0.00 0.00 100 1014.5
20260905113845 71 345 0.9 1.7 0.00 0.00 0.00 100 1014.5